• In Italy
  • List of Countries
  • For 7 days
  • Water Temperature
  • Satellite Maps
  • Weather Map
  • Weather Widgets
  • user-avatar
    Login

    Hourly Weather Ishoj

    Today, 23 October, Tuesday

    Time Temperature Precipitation Wind Pressure Humidity
    00:00 +7°C° 0.6 mm 11 mps 762 mmHg 74%
    01:00 +8°C° 0.6 mm 12 mps 761 mmHg 78%
    02:00 +8°C° 2 mm 13 mps 759 mmHg 80%
    03:00 +8°C° 2 mm 13 mps 758 mmHg 82%
    04:00 +8°C° 2 mm 14 mps 756 mmHg 84%
    05:00 +9°C° 1.2 mm 14 mps 755 mmHg 83%
    06:00 +9°C° 1.2 mm 14 mps 754 mmHg 82%
    07:00 +10°C° 1.2 mm 14 mps 753 mmHg 80%
    08:00 +10°C° 0.7 mm 14 mps 752 mmHg 79%
    09:00 +10°C° 0.7 mm 14 mps 752 mmHg 77%
    10:00 +10°C° 0.7 mm 14 mps 751 mmHg 76%
    11:00 +10°C° 0.3 mm 14 mps 751 mmHg 72%
    12:00 +12°C° 0.3 mm 14 mps 751 mmHg 69%
    13:00 +12°C° 0.3 mm 14 mps 751 mmHg 66%
    14:00 +12°C° 0.1 mm 14 mps 750 mmHg 66%
    15:00 +10°C° 0.1 mm 14 mps 750 mmHg 66%
    16:00 +10°C° 0.1 mm 13 mps 750 mmHg 66%
    17:00 +9°C° 0.1 mm 13 mps 750 mmHg 66%
    18:00 +9°C° 0.1 mm 13 mps 750 mmHg 66%
    19:00 +9°C° 0.1 mm 13 mps 750 mmHg 67%
    20:00 +8°C° 0.1 mm 13 mps 750 mmHg 65%
    21:00 +8°C° 0.1 mm 14 mps 750 mmHg 63%
    22:00 +8°C° 0.1 mm 14 mps 750 mmHg 61%
    23:00 +7°C° 0.1 mm 13 mps 751 mmHg 58%

    Tomorrow, 24 October, Wednesday

    Time Temperature Precipitation Wind Pressure Humidity
    00:00 +7°C° 0.1 mm 13 mps 751 mmHg 55%
    01:00 +5°C° 0.1 mm 12 mps 752 mmHg 53%
    02:00 +6°C° 0.1 mm 11 mps 752 mmHg 53%
    03:00 +6°C° 0.1 mm 11 mps 753 mmHg 54%
    04:00 +6°C° 0.1 mm 11 mps 754 mmHg 55%
    05:00 +5°C° 0 mm 10 mps 754 mmHg 53%
    06:00 +5°C° 0 mm 10 mps 755 mmHg 51%
    07:00 +5°C° 0 mm 10 mps 756 mmHg 49%
    08:00 +6°C° 0 mm 10 mps 756 mmHg 48%
    09:00 +6°C° 0 mm 10 mps 757 mmHg 46%
    10:00 +7°C° 0 mm 10 mps 758 mmHg 45%
    11:00 +7°C° 0 mm 10 mps 758 mmHg 45%
    12:00 +8°C° 0 mm 9 mps 759 mmHg 45%
    13:00 +8°C° 0 mm 9 mps 759 mmHg 44%
    14:00 +8°C° 0 mm 9 mps 759 mmHg 48%
    15:00 +7°C° 0 mm 8 mps 759 mmHg 52%
    16:00 +8°C° 0 mm 7 mps 760 mmHg 55%
    17:00 +6°C° 0 mm 7 mps 760 mmHg 60%
    18:00 +6°C° 0 mm 7 mps 760 mmHg 65%
    19:00 +5°C° 0 mm 6 mps 759 mmHg 69%
    20:00 +6°C° 0 mm 7 mps 759 mmHg 72%
    21:00 +6°C° 0 mm 7 mps 758 mmHg 74%
    22:00 +6°C° 0 mm 7 mps 758 mmHg 77%
    23:00 +7°C° 0.7 mm 8 mps 757 mmHg 81%

    Day after tomorrow, 25 October, Thursday

    Time Temperature Precipitation Wind Pressure Humidity
    00:00 +8°C° 0.7 mm 9 mps 756 mmHg 85%
    01:00 +9°C° 0.7 mm 10 mps 755 mmHg 88%
    02:00 +9°C° 0.2 mm 10 mps 754 mmHg 85%
    03:00 +9°C° 0.2 mm 11 mps 754 mmHg 81%
    04:00 +10°C° 0.2 mm 12 mps 753 mmHg 78%
    05:00 +9°C° 0.1 mm 12 mps 753 mmHg 76%
    06:00 +9°C° 0.1 mm 12 mps 753 mmHg 74%
    07:00 +8°C° 0.1 mm 13 mps 753 mmHg 72%
    08:00 +8°C° 0 mm 13 mps 753 mmHg 69%
    09:00 +9°C° 0 mm 13 mps 753 mmHg 67%
    10:00 +9°C° 0 mm 13 mps 753 mmHg 65%
    11:00 +9°C° 0 mm 12 mps 753 mmHg 64%
    12:00 +9°C° 0 mm 12 mps 753 mmHg 63%
    13:00 +10°C° 0 mm 12 mps 753 mmHg 62%
    14:00 +9°C° 0 mm 11 mps 753 mmHg 64%
    15:00 +9°C° 0 mm 10 mps 754 mmHg 65%
    16:00 +9°C° 0 mm 10 mps 754 mmHg 67%
    17:00 +8°C° 0 mm 9 mps 754 mmHg 68%
    18:00 +8°C° 0 mm 9 mps 754 mmHg 70%
    19:00 +7°C° 0 mm 8 mps 754 mmHg 72%
    20:00 +7°C° 0 mm 8 mps 754 mmHg 74%
    21:00 +8°C° 0 mm 7 mps 754 mmHg 75%
    22:00 +8°C° 0 mm 7 mps 754 mmHg 77%
    23:00 +8°C° 0 mm 7 mps 754 mmHg 76%

    26 October, Friday

    Time Temperature Precipitation Wind Pressure Humidity
    00:00 +8°C° 0 mm 7 mps 754 mmHg 75%
    01:00 +8°C° 0 mm 6 mps 754 mmHg 75%
    02:00 +8°C° 0 mm 6 mps 754 mmHg 75%
    03:00 +7°C° 0 mm 6 mps 753 mmHg 76%
    04:00 +7°C° 0 mm 5 mps 753 mmHg 76%
    05:00 +7°C° 0 mm 5 mps 752 mmHg 77%
    06:00 +7°C° 0 mm 4 mps 752 mmHg 77%
    07:00 +8°C° 0 mm 3 mps 751 mmHg 78%
    08:00 +8°C° 0.2 mm 4 mps 751 mmHg 79%
    09:00 +8°C° 0.2 mm 5 mps 750 mmHg 81%
    10:00 +9°C° 0.2 mm 6 mps 749 mmHg 82%
    11:00 +9°C° 0.6 mm 7 mps 749 mmHg 82%
    12:00 +10°C° 0.6 mm 8 mps 748 mmHg 82%
    13:00 +11°C° 0.6 mm 8 mps 747 mmHg 82%
    14:00 +10°C° 0.2 mm 8 mps 747 mmHg 80%
    15:00 +10°C° 0.2 mm 8 mps 746 mmHg 79%
    16:00 +10°C° 0.2 mm 8 mps 745 mmHg 77%
    17:00 +10°C° 0.4 mm 9 mps 745 mmHg 77%
    18:00 +8°C° 0.4 mm 9 mps 744 mmHg 78%
    19:00 +8°C° 0.4 mm 9 mps 743 mmHg 79%
    20:00 +8°C° 0.1 mm 10 mps 743 mmHg 76%
    21:00 +7°C° 0.1 mm 10 mps 743 mmHg 73%
    22:00 +7°C° 0.1 mm 11 mps 742 mmHg 71%
    23:00 +7°C° 0 mm 11 mps 742 mmHg 70%

    27 October, Saturday

    Time Temperature Precipitation Wind Pressure Humidity
    00:00 +6°C° 0 mm 11 mps 741 mmHg 69%
    01:00 +6°C° 0 mm 11 mps 741 mmHg 68%
    02:00 +6°C° 0.1 mm 11 mps 740 mmHg 69%
    03:00 +5°C° 0.1 mm 12 mps 739 mmHg 69%
    04:00 +5°C° 0.1 mm 13 mps 739 mmHg 70%
    05:00 +5°C° 0.1 mm 12 mps 739 mmHg 71%
    06:00 +4°C° 0.1 mm 12 mps 739 mmHg 71%
    07:00 +4°C° 0.1 mm 12 mps 739 mmHg 71%
    08:00 +4°C° 0.1 mm 12 mps 740 mmHg 72%
    09:00 +5°C° 0.1 mm 12 mps 740 mmHg 73%
    10:00 +5°C° 0.1 mm 12 mps 741 mmHg 73%
    11:00 +6°C° 0.3 mm 11 mps 741 mmHg 73%
    12:00 +6°C° 0.3 mm 11 mps 742 mmHg 73%
    13:00 +6°C° 0.3 mm 11 mps 742 mmHg 73%
    14:00 +6°C° 0.2 mm 10 mps 743 mmHg 73%
    15:00 +6°C° 0.2 mm 9 mps 743 mmHg 73%
    16:00 +6°C° 0.2 mm 9 mps 744 mmHg 72%
    17:00 +5°C° 0.3 mm 8 mps 745 mmHg 75%
    18:00 +5°C° 0.3 mm 8 mps 745 mmHg 77%
    19:00 +5°C° 0.3 mm 7 mps 746 mmHg 80%
    20:00 +4°C° 0.3 mm 7 mps 747 mmHg 80%
    21:00 +4°C° 0.3 mm 7 mps 747 mmHg 79%
    22:00 +3°C° 0.3 mm 7 mps 748 mmHg 79%
    23:00 +3°C° 0.2 mm 7 mps 748 mmHg 79%

    28 October, Sunday

    Time Temperature Precipitation Wind Pressure Humidity
    00:00 +2°C° 0.2 mm 7 mps 749 mmHg 78%
    01:00 +2°C° 0.2 mm 7 mps 749 mmHg 77%
    02:00 +2°C° 0.1 mm 7 mps 750 mmHg 77%
    03:00 +2°C° 0.1 mm 7 mps 750 mmHg 76%
    04:00 0°C° 0.1 mm 7 mps 750 mmHg 76%
    05:00 0°C° 0 mm 7 mps 750 mmHg 76%
    06:00 0°C° 0 mm 7 mps 751 mmHg 76%
    07:00 0°C° 0 mm 7 mps 751 mmHg 75%
    08:00 +1°C° 0.1 mm 8 mps 752 mmHg 73%
    09:00 +1°C° 0.1 mm 8 mps 752 mmHg 71%
    10:00 +1°C° 0.1 mm 8 mps 753 mmHg 68%
    11:00 +2°C° 0 mm 8 mps 753 mmHg 66%
    12:00 +2°C° 0 mm 8 mps 753 mmHg 64%
    13:00 +2°C° 0 mm 8 mps 754 mmHg 62%
    14:00 +3°C° 0 mm 7 mps 754 mmHg 63%
    15:00 +2°C° 0 mm 7 mps 754 mmHg 63%
    16:00 +2°C° 0 mm 7 mps 755 mmHg 64%
    17:00 +2°C° 0 mm 7 mps 755 mmHg 65%
    18:00 0°C° 0 mm 7 mps 756 mmHg 66%
    19:00 +1°C° 0 mm 6 mps 756 mmHg 67%
    20:00 -1°C° 0 mm 6 mps 757 mmHg 68%
    21:00 -1°C° 0 mm 6 mps 757 mmHg 69%
    22:00 -1°C° 0 mm 5 mps 757 mmHg 71%
    23:00 -1°C° 0 mm 5 mps 758 mmHg 72%
    Show more